[[{"header":{"parameterUnit":"m.s-1","parameterCategory":1,"la1":30.2992,"la2":30.254,"lo1":-89.0895,"lo2":-89.0443,"dy":0.0025,"dx":0.0025,"nx":19,"ny":19,"refTime":"2026-05-08T03:00:00:Z","depth":0,"parameterNumber":2,"parameterNumberName":"U-component_of_WINDS"},"data":[0,0,0,-3.9911,-3.9916,-4.0135,-4.0136,-4.0401,-4.0404,0,0,0,0,0,0,0,0,0,0,0,-3.9838,-3.984,-3.9911,-3.9916,-4.0135,-4.0136,-4.0401,-4.0404,0,0,0,0,0,0,0,0,0,0,0,-3.9837,-3.9839,-3.9841,-3.9917,-4.0135,-4.0136,-4.04,-4.024,0,0,0,0,0,0,0,0,0,0,-4.003,-3.9954,-3.9839,-3.9841,-3.9918,-4.0135,-4.0136,-4.0233,-4.025,-4.0296,0,-4.0335,0,-4.0374,-4.042,-4.0421,0,0,0,-3.9922,-3.994,-4.0007,-3.9842,-3.992,-4.0134,-4.0038,-4.0243,-4.0262,-4.0319,-4.0339,-4.0349,-4.0378,-4.0422,-4.0423,-4.0671,-4.0672,0,0,-3.991,-3.9873,-3.9993,-4.0019,-3.9986,-4.0031,-4.0045,-4.0255,-4.0274,-4.034,-4.0356,-4.0382,-4.0424,-4.0426,-4.067,-4.0671,0,0,0,-3.9871,-3.9864,-3.9926,-4.0008,-4.0048,-4.0037,-4.0053,-4.0265,-4.0288,-4.0359,-4.0386,-4.0425,-4.0428,-4.0669,-4.067,-4.0677,0,0,0,-3.9864,-3.9842,-3.992,-3.99,-4.0044,-4.0159,-4.0058,-4.0273,-4.0298,-4.0384,-4.0425,-4.0431,-4.0668,-4.067,-4.0674,-4.0684,0,0,0,-3.9827,-3.9837,-3.9866,-3.9897,-3.9991,-4.0157,-4.0193,-4.028,-4.0314,-4.0422,-4.0431,-4.0668,-4.0669,-4.0672,-4.0681,-4.0737,0,0,0,-3.9775,-3.9869,-3.9866,-3.9981,-3.9989,-4.0161,-4.0192,-4.0322,-4.0415,-4.0427,-4.0668,-4.067,-4.0672,-4.0679,-4.0734,-4.0774,-4.0788,0,0,-3.9872,-3.9879,-3.995,-3.9954,-4.0117,-4.013,-4.0294,-4.0414,-4.0458,-4.0597,-4.0604,-4.0675,-4.0681,-4.0736,-4.0887,-4.0897,0,0,0,-3.9968,-4.0018,-4.007,-4.0157,-4.0252,-4.0334,-4.0433,-4.0478,-4.0598,-4.0522,-4.0713,-4.0718,-4.0752,-4.0772,-4.0782,-4.0812,-4.0679,-4.0679,-4.0679,-4.0049,-4.0102,-4.0222,-4.0301,-4.0386,-4.0489,-4.0561,-4.0639,-4.0667,-4.0711,-4.0751,-4.0836,-4.0859,-4.0866,-4.0897,-4.078,-4.078,-4.078,-4.078,-4.0193,-4.027,-4.0308,-4.0437,-4.0493,-4.0602,-4.0705,-4.0721,-4.083,-4.081,-4.0842,-4.0812,-4.0876,-4.0906,-4.0781,-4.0781,-4.0781,-4.0781,-4.078,-4.0248,-4.0294,-4.0349,-4.0482,-4.0578,-4.0656,-4.0759,-4.0807,-4.0852,-4.0884,-4.093,-4.093,-4.0933,-4.0904,-4.0904,-4.0905,-4.0905,-4.0905,-4.0905,-4.0282,-4.0344,-4.0425,-4.0536,-4.0598,-4.0687,-4.0793,-4.0856,-4.0937,-4.0963,-4.0964,-4.0985,-4.0875,-4.0843,-4.091,-4.0909,-4.0909,-4.0908,-4.0908,-4.0401,-4.0383,-4.0507,-4.057,-4.0704,-4.0796,-4.0858,-4.0981,-4.1041,-4.1089,-4.1107,-4.1018,-4.1027,-4.1021,-4.0994,-4.1097,-4.1097,-4.1097,-4.1097,-4.0444,-4.0456,-4.0594,-4.0692,-4.0793,-4.0862,-4.1,-4.1084,-4.1168,-4.1208,-4.1201,-4.1173,-4.1164,-4.1178,-4.1168,-4.1144,-4.1282,-4.1282,-4.1283,-4.0519,-4.0543,-4.0651,-4.0734,-4.0843,-4.0935,-4.1067,-4.1176,-4.1268,-4.1291,-4.1239,-4.1231,-4.1186,-4.1169,-4.1185,-4.1168,-4.1126,0,0]},{"header":{"parameterUnit":"m.s-1","parameterCategory":1,"la1":30.2992,"la2":30.254,"lo1":-89.0895,"lo2":-89.0443,"dy":0.0025,"dx":0.0025,"nx":19,"ny":19,"refTime":"2026-05-08T03:00:00:Z","depth":0,"parameterNumber":3,"parameterNumberName":"V-component_of_WINDS"},"data":[0,0,0,3.9831,3.9835,4.0045,4.0046,4.03,4.0302,0,0,0,0,0,0,0,0,0,0,0,3.9764,3.9766,3.983,3.9836,4.0045,4.0046,4.03,4.0302,0,0,0,0,0,0,0,0,0,0,0,3.9764,3.9766,3.9768,3.9836,4.0045,4.0046,4.0299,4.0145,0,0,0,0,0,0,0,0,0,0,3.9944,3.9879,3.9765,3.9768,3.9838,4.0044,4.0046,4.0138,4.0155,4.0201,0,4.0244,0,4.0277,4.0319,4.032,0,0,0,3.9838,3.9865,3.9926,3.9768,3.984,4.0044,3.9951,4.0147,4.0166,4.0223,4.0247,4.0257,4.0282,4.032,4.0322,4.0587,4.0588,0,0,3.9826,3.9799,3.9913,3.9938,3.9909,3.9944,3.9958,4.0159,4.0182,4.0248,4.0263,4.0286,4.0322,4.0324,4.0586,4.0587,0,0,0,3.9792,3.979,3.9847,3.9927,3.9966,3.995,3.9966,4.0173,4.0194,4.0266,4.0289,4.0324,4.0327,4.0585,4.0586,4.0616,0,0,0,3.9785,3.977,3.9842,3.9827,3.9962,4.0073,3.9975,4.018,4.0204,4.0287,4.0324,4.0329,4.0584,4.0586,4.0612,4.0633,0,0,0,3.9752,3.9767,3.9796,3.9825,3.9914,4.0071,4.0103,4.0186,4.0218,4.032,4.033,4.0583,4.0585,4.0609,4.0628,4.0694,0,0,0,3.9708,3.9818,3.9796,3.9926,3.9912,4.0089,4.0102,4.0234,4.0325,4.0325,4.0584,4.0586,4.0608,4.0625,4.0691,4.0744,4.0764,0,0,3.9831,3.9831,3.9911,3.9897,4.0071,4.0059,4.0236,4.0344,4.0377,4.0514,4.0521,4.0613,4.0628,4.0693,4.0889,4.0904,0,0,0,3.994,3.9996,4.0048,4.0135,4.0223,4.0298,4.0383,4.0423,4.0541,4.0443,4.0657,4.0666,4.0706,4.0732,4.0745,4.078,4.0598,4.0598,4.0597,4.0072,4.0111,4.0244,4.0308,4.0392,4.0479,4.055,4.0618,4.0631,4.0681,4.0721,4.0835,4.0865,4.0876,4.0911,4.0754,4.0754,4.0754,4.0754,4.0253,4.0338,4.0356,4.0491,4.053,4.0643,4.073,4.0736,4.0844,4.0808,4.0845,4.0801,4.0892,4.0925,4.0757,4.0756,4.0756,4.0756,4.0756,4.0342,4.039,4.0439,4.0569,4.0664,4.0724,4.0828,4.0861,4.0891,4.0928,4.0972,4.0972,4.0974,4.0947,4.0948,4.0948,4.0948,4.0949,4.0949,4.0415,4.0469,4.0555,4.0657,4.0717,4.08,4.0888,4.0946,4.1019,4.1034,4.1034,4.1041,4.0895,4.0856,4.0955,4.0954,4.0953,4.0953,4.0952,4.0581,4.0549,4.0681,4.0741,4.0863,4.0954,4.0995,4.1112,4.1165,4.1214,4.1214,4.1102,4.1103,4.1093,4.1061,4.1207,4.1207,4.1207,4.1207,4.0655,4.0661,4.0802,4.0896,4.0992,4.1042,4.1186,4.1255,4.132,4.1355,4.1339,4.13,4.1288,4.1297,4.1282,4.1252,4.1444,4.1444,4.1444,4.0759,4.0775,4.0893,4.096,4.1058,4.114,4.1276,4.138,4.1447,4.1455,4.1382,4.1372,4.131,4.1288,4.1291,4.1268,4.1214,0,0]}]]